Stations météo

réclame
Mon MeteoGroup
Büchel (Flugplatz), Allemagne (10613): Température de l'air & dewpoint: 13.06.2019 18:00:00 - 19.06.2019 18:00:00 (CEST)Büchel (Flugplatz), Allemagne (10613): Vitesse du vent & gusts: 13.06.2019 18:00:00 - 19.06.2019 18:00:00 (CEST)Büchel (Flugplatz), Allemagne (10613): Direction du vent: 13.06.2019 18:00:00 - 19.06.2019 18:00:00 (CEST)Büchel (Flugplatz), Allemagne (10613): reduced air pressure: 13.06.2019 18:00:00 - 19.06.2019 18:00:00 (CEST)Büchel (Flugplatz), Allemagne (10613): visibility: 13.06.2019 18:00:00 - 19.06.2019 18:00:00 (CEST)
Date & Time tt [°C] td [°C] ff [km/h] ff [knt] fx [km/h] fx [knt] dd ppp [hPa] vv [km]
19.06.2019 18:00:00 22,8 13,2 11 6 - - SW 1007,7 12
19.06.2019 17:00:00 24,8 14,0 11 6 - - SSW 1007,5 16
19.06.2019 16:00:00 24,7 13,1 7 4 - - W 1008,1 30
19.06.2019 15:00:00 22,2 14,3 18 10 - - SW 1009,5 30
19.06.2019 14:00:00 22,3 13,7 25 14 - - SSW 1009,2 30
19.06.2019 13:00:00 22,4 12,7 11 6 - - SSW 1008,5 30
19.06.2019 12:00:00 21,1 12,4 14 8 50 27 W 1008,9 25
19.06.2019 11:00:00 23,2 12,7 25 14 - - SW 1008,5 30
19.06.2019 10:00:00 22,5 12,0 25 14 - - SW 1008,7 30
19.06.2019 09:00:00 22,3 13,7 11 6 - - S 1008,1 30
19.06.2019 08:00:00 20,6 12,8 11 6 - - SSE 1008,7 30
19.06.2019 07:00:00 19,5 11,9 7 4 - - SSE 1009,4 10
19.06.2019 06:00:00 18,4 11,0 7 4 - - S 1009,9 13
19.06.2019 05:00:00 18,4 11,7 7 4 - - SSE 1010,1 12
19.06.2019 04:00:00 19,6 12,3 7 4 - - SSE 1010,3 12
19.06.2019 03:00:00 18,9 11,9 7 4 - - ESE 1010,7 12
19.06.2019 02:00:00 21,0 11,7 7 4 - - S 1010,7 12
19.06.2019 01:00:00 21,1 12,0 4 2 - - WNW 1011,2 12
19.06.2019 00:00:00 21,2 12,1 4 2 - - W 1011,5 12
18.06.2019 23:00:00 21,6 12,5 4 2 - - W 1011,7 13
18.06.2019 22:00:00 21,9 12,6 7 4 - - W 1011,7 13
18.06.2019 21:00:00 22,6 13,1 7 4 - - W 1011,4 13
18.06.2019 20:00:00 23,8 13,1 7 4 - - WSW 1011,3 13
18.06.2019 19:00:00 24,8 12,8 7 4 - - S 1011,5 17
18.06.2019 18:00:00 24,7 12,5 11 6 - - SW 1011,8 16
18.06.2019 17:00:00 24,6 12,2 14 8 - - SSW 1012,1 13
18.06.2019 16:00:00 25,6 12,4 11 6 - - S 1012,1 17
18.06.2019 15:00:00 25,2 12,8 22 12 - - S 1012,5 19
18.06.2019 14:00:00 24,5 12,1 14 8 - - SSE 1013,1 17
18.06.2019 13:00:00 24,0 12,1 14 8 - - SE 1013,5 16
18.06.2019 12:00:00 23,7 13,2 11 6 - - E 1013,7 40
18.06.2019 11:00:00 22,1 12,8 7 4 - - E 1014,5 40
18.06.2019 10:00:00 21,1 12,8 7 4 - - SE 1014,9 40
18.06.2019 09:00:00 19,7 12,3 7 4 - - ENE 1015,3 40
18.06.2019 08:00:00 18,6 11,3 7 4 - - ENE 1015,6 40
18.06.2019 07:00:00 17,9 11,1 11 6 - - NE 1015,5 40
18.06.2019 06:00:00 17,3 9,9 7 4 - - NE 1015,8 13
18.06.2019 05:00:00 17,0 9,9 7 4 - - NE 1016,0 14
18.06.2019 04:00:00 18,1 9,8 7 4 - - ENE 1016,1 14
18.06.2019 03:00:00 18,2 9,6 7 4 - - ENE 1016,3 14
18.06.2019 02:00:00 18,4 9,7 4 2 - - E 1016,8 14
18.06.2019 01:00:00 18,7 9,4 4 2 - - ENE 1017,1 15
18.06.2019 00:00:00 18,7 9,6 7 4 - - E 1017,1 13
17.06.2019 23:00:00 19,4 9,8 7 4 - - NE 1017,0 15
17.06.2019 22:00:00 20,5 9,5 4 2 - - ENE 1016,8 17
17.06.2019 21:00:00 21,5 8,9 4 2 - - ESE 1016,8 16
17.06.2019 20:00:00 21,6 9,7 11 6 - - E 1016,9 19
17.06.2019 19:00:00 22,8 9,0 11 6 - - SSE 1016,9 23
17.06.2019 18:00:00 23,3 9,5 11 6 - - SE 1017,1 20
17.06.2019 17:00:00 22,2 9,3 11 6 - - SE 1017,8 19
17.06.2019 16:00:00 21,6 9,0 11 6 - - ESE 1018,3 26
17.06.2019 15:00:00 21,0 9,4 11 6 - - E 1019,1 15
17.06.2019 14:00:00 20,8 9,5 7 4 - - ENE 1019,1 14
17.06.2019 13:00:00 20,6 9,6 7 4 - - ESE 1019,5 40
17.06.2019 12:00:00 20,0 10,6 7 4 - - E 1020,0 40
17.06.2019 11:00:00 19,0 9,4 11 6 - - E 1020,5 40
17.06.2019 10:00:00 18,3 10,1 11 6 - - E 1020,8 40
17.06.2019 09:00:00 17,2 10,2 11 6 - - ESE 1021,5 40
17.06.2019 08:00:00 16,0 10,5 7 4 - - E 1021,5 40
17.06.2019 07:00:00 14,8 10,0 7 4 - - E 1021,8 40
17.06.2019 06:00:00 13,1 8,9 7 4 - - ENE 1022,0 11
17.06.2019 05:00:00 12,8 9,0 7 4 - - E 1022,4 12
17.06.2019 04:00:00 14,5 9,1 7 4 - - NNE 1022,0 13
17.06.2019 03:00:00 15,3 9,3 7 4 - - N 1021,8 13
17.06.2019 02:00:00 14,0 9,2 7 4 - - N 1022,2 12
17.06.2019 01:00:00 14,8 9,5 4 2 - - NW 1022,0 12
17.06.2019 00:00:00 14,8 9,6 4 2 - - NW 1022,1 13
16.06.2019 23:00:00 15,6 9,5 4 2 - - WNW 1021,9 15
16.06.2019 22:00:00 16,3 9,4 7 4 - - W 1021,6 14
16.06.2019 21:00:00 17,1 9,2 7 4 - - WSW 1021,2 15
16.06.2019 20:00:00 17,7 9,5 7 4 - - WSW 1021,1 16
16.06.2019 19:00:00 18,9 9,1 11 6 - - WSW 1020,7 18
16.06.2019 18:00:00 17,7 9,7 11 6 - - WSW 1021,1 15
16.06.2019 17:00:00 18,2 9,3 14 8 - - WSW 1021,1 15
16.06.2019 16:00:00 18,1 9,3 14 8 - - WSW 1021,1 14
16.06.2019 15:00:00 18,2 9,3 22 12 - - SW 1020,9 15
16.06.2019 14:00:00 17,6 9,1 14 8 - - SW 1020,9 13
16.06.2019 13:00:00 19,1 9,4 18 10 - - SW 1020,6 15
16.06.2019 12:00:00 18,1 8,9 18 10 - - SW 1020,7 16
16.06.2019 11:00:00 16,9 8,8 18 10 - - WSW 1020,6 14
16.06.2019 10:00:00 16,2 8,8 11 6 - - WSW 1020,5 13
16.06.2019 09:00:00 14,9 9,6 11 6 - - W 1020,6 15
16.06.2019 08:00:00 13,8 9,5 7 4 - - W 1020,4 12
16.06.2019 07:00:00 12,4 9,4 11 6 - - WSW 1020,4 12
16.06.2019 06:00:00 13,1 9,1 7 4 - - WSW 1020,1 12
16.06.2019 05:00:00 13,3 9,4 7 4 - - W 1019,5 13
16.06.2019 04:00:00 13,8 9,7 7 4 - - W 1019,4 13
16.06.2019 03:00:00 14,4 9,6 11 6 - - W 1019,0 13
16.06.2019 02:00:00 14,7 10,3 7 4 - - W 1018,5 13
16.06.2019 01:00:00 14,9 10,9 11 6 - - W 1018,4 12
16.06.2019 00:00:00 15,3 10,6 7 4 - - W 1017,8 12
15.06.2019 23:00:00 15,8 10,2 7 4 - - W 1016,9 13
15.06.2019 22:00:00 16,7 10,0 11 6 - - WSW 1016,2 14
15.06.2019 21:00:00 18,3 10,2 11 6 - - SW 1015,6 14
15.06.2019 20:00:00 19,7 10,3 14 8 - - WSW 1015,3 15
15.06.2019 19:00:00 20,5 9,3 14 8 - - SW 1014,8 18
15.06.2019 18:00:00 20,5 9,4 11 6 - - WSW 1014,9 17
15.06.2019 17:00:00 20,0 8,8 18 10 - - WSW 1015,1 15
15.06.2019 16:00:00 20,6 9,8 18 10 - - W 1014,7 21
15.06.2019 15:00:00 19,7 10,3 18 10 - - WSW 1014,8 15
15.06.2019 14:00:00 19,8 11,8 22 12 - - WSW 1014,6 14
15.06.2019 13:00:00 18,9 12,2 25 14 - - WSW 1014,1 12
15.06.2019 12:00:00 17,3 12,6 25 14 - - WSW 1014,0 13
15.06.2019 11:00:00 17,4 12,3 22 12 - - W 1013,3 12
15.06.2019 10:00:00 16,0 13,6 22 12 - - WSW 1012,6 11
15.06.2019 09:00:00 15,1 13,6 22 12 - - WSW 1012,4 11
15.06.2019 08:00:00 14,5 13,4 14 8 - - WSW 1011,4 9
15.06.2019 07:00:00 13,8 13,0 14 8 - - W 1011,1 10
15.06.2019 06:00:00 13,5 12,7 14 8 - - WSW 1010,9 10
15.06.2019 05:00:00 13,2 12,2 14 8 - - W 1010,3 11
15.06.2019 04:00:00 13,0 12,2 11 6 - - WNW 1010,2 10
15.06.2019 03:00:00 14,1 12,8 11 6 - - NE 1010,1 12
15.06.2019 02:00:00 14,3 13,5 4 2 - - N 1011,2 6
15.06.2019 01:00:00 15,1 13,5 11 6 - - NE 1011,6 10
15.06.2019 00:00:00 15,6 13,2 7 4 - - NW 1012,8 5
14.06.2019 23:00:00 16,5 12,7 0 0 - - N 1012,4 9
14.06.2019 22:00:00 17,4 11,9 4 2 - - N 1012,3 13
14.06.2019 21:00:00 17,5 12,4 11 6 - - N 1012,1 13
14.06.2019 20:00:00 19,1 11,0 7 4 - - E 1012,4 14
14.06.2019 19:00:00 20,5 10,1 11 6 - - SE 1012,8 15
14.06.2019 18:00:00 21,9 9,0 14 8 - - S 1012,8 17
14.06.2019 17:00:00 22,4 9,1 14 8 - - SSE 1013,0 18
14.06.2019 16:00:00 22,2 9,3 14 8 - - SW 1013,6 16
14.06.2019 15:00:00 22,3 9,6 18 10 - - SW 1013,8 16
14.06.2019 14:00:00 23,1 8,5 25 14 - - S 1014,0 20
14.06.2019 13:00:00 21,7 8,1 22 12 - - S 1014,3 23
14.06.2019 12:00:00 20,4 8,6 14 8 - - SSW 1014,8 40
14.06.2019 11:00:00 19,9 9,0 22 12 - - SSW 1014,7 40
14.06.2019 10:00:00 19,3 9,9 14 8 - - SW 1014,8 40
14.06.2019 09:00:00 17,7 8,4 7 4 - - W 1014,4 30
14.06.2019 08:00:00 15,7 9,1 7 4 - - ESE 1014,4 30
14.06.2019 07:00:00 13,7 8,1 11 6 - - ESE 1014,2 13
14.06.2019 06:00:00 13,2 7,6 11 6 - - SE 1014,3 10
14.06.2019 05:00:00 13,2 6,7 11 6 - - ESE 1014,0 14
14.06.2019 04:00:00 12,8 6,9 7 4 - - ESE 1014,3 15
14.06.2019 03:00:00 12,7 7,2 11 6 - - SE 1014,8 15
14.06.2019 02:00:00 12,7 8,5 11 6 - - SE 1014,9 13
14.06.2019 01:00:00 12,8 8,6 7 4 - - SE 1015,2 13
14.06.2019 00:00:00 12,3 9,4 11 6 - - ESE 1015,2 13
13.06.2019 23:00:00 11,6 10,1 7 4 - - E 1015,5 13
13.06.2019 22:00:00 11,7 10,4 11 6 - - E 1015,0 3,1
13.06.2019 21:00:00 12,8 10,6 7 4 - - ESE 1014,8 14
13.06.2019 20:00:00 13,6 10,5 11 6 - - S 1015,0 14
13.06.2019 19:00:00 13,0 8,7 32 18 54 29 W 1015,3 5
13.06.2019 18:00:00 18,0 6,2 22 12 - - SW 1013,1 16

tt = Température de l'air
td = dewpoint
ff = Vitesse du vent
fx = gusts
dd = Direction du vent
ppp = reduced air pressure
vv = visibility

stations d'obs. à proximité